User: anonymous   Login
Location: Caixon
(43.4106°N, 0.0273°E)
Time: 11:03:39
(UTC+00:00)
Language:

Cosmos 1707 - Orbit

View from above orbital plane
View from above orbital plane
View from above satellite
View from above satellite

Ground track
Ground track

The orbit data is extracted from the following two-line orbital elements,

1 16326U 85113A   22018.06866593  .00002346  00000-0  12342-3 0  9992
2 16326  82.5110 359.8712 0008475 267.2796  92.7466 15.15164797970933
Epoch (UTC): 18 January 2022 01:38:52
Eccentricity: 0.0008475
inclination: 82.5110°
perigee height: 514 km
apogee height: 526 km
right ascension of ascending node: 359.8712°
argument of perigee: 267.2796°
revolutions per day: 15.15164797
mean anomaly at epoch: 92.7466°
orbit number at epoch: 97093

The dashed part of the orbit path shows where the satellite is in the earth's shadow,  

DLR